星链-2657 (STARLINK-2657 )

导读

STARLINK-2657是美国太空探索技术公司星链星座的成员,于2021年5月26日发射入轨。星链项目旨在构建全球卫星互联网星座,该卫星承担着为全球偏远地区、海洋空域提供低延迟宽带网络服务的任务,依托近地轨道部署,是美国大规模商业卫星互联网组网进程中的组成单元,助力星链系统全球覆盖能力的延伸。

基本信息
目录编号:
48655
目录名称:
STARLINK-2657
国际标识:
2021-044T
轨道中心:
EARTH
卫星名称:
星链-2657
卫星全名:
星链-2657 (STARLINK-2657 )
卫星状态:
在轨 (已飞行1928 天)
发射日期:
2021-05-26 UTC
国别 :
美国 (US)
星等 :
--
轨道信息
数据来源 国际轨道数据 AOE轨道数据
星历时间 2026-09-05T08:49:12+0800
8小时前
查看轨道信息
2026-09-02T08:00:00+0800
3天前
查看轨道信息
半长轴 6848.892km 6848.846km
偏心率 0.0001214 0.0001619
轨道倾角 53.162° 53.156°
近地点辐角 90.268° 17.291°
升交点赤经 359.384° 13.514°
平近点角 269.846° 162.839°
近地点 469.923km 469.6km
远地点 471.587km 471.818km
周期 94.013分钟 94.013分钟
每日圈数 15.316953 15.317106
详细信息
固有亮度:
5
最大亮度:
2.5
卫星平台:
Starlink V1.0
覆盖范围:
全球
运营商:
太空探索技术公司
运营商所在国:
美国
制造商(研发单位):
太空探索技术公司
制造商所在国:
美国
使用方式:
暂无
卫星简介
星链(Starlink)计划是由太空探索技术公司(SpaceX)提出的一个巨型低轨卫星互联网星座项目,计划在2019年至2024年间在太空搭建由约1.2万颗卫星组成的“星链”网络,其中1584颗将部署在地球上空550千米处的近地轨道,并从2020年开始工作。该卫星仍在工作。
2D轨道图
3D轨道图
轨道高度分析图
轨道倾角分析图
轨道综合分析图
查看轨道综合分析图
交会数据列表
事件ID 空间交会对象 最接近时刻(TCA) 交会距离 交会风险概率(CRP) 交会风险指数(CRI) 操作
CDM_260906-073804-865506-978821
2026-09-06T
07:38:36+0000
1.949 km
极远距离
1.892827E-6 低风险 0.41
CDM_260905-152204-865506-971722
2026-09-05T
15:22:48+0000
2.988 km
极远距离
1.064063E-6 低风险 0.36
CDM_260906-004804-865506-965121
2026-09-06T
00:48:08+0000
2.977 km
极远距离
1.024436E-6 低风险 0.35